Weather Service Report


272 
ASUS43 KLSX 261310
RWRMO 

WEATHER SUMMARY FOR MISSOURI
NATIONAL WEATHER SERVICE SPRINGFIELD MO
800 AM CDT SUN JUN 26 2016

NOTE: "FAIR" INDICATES FEW OR NO CLOUDS BELOW 12,000 FEET WITH NO
       SIGNIFICANT WEATHER AND/OR OBSTRUCTIONS TO VISIBILITY.
       CURRENT SKY AND/OR WEATHER CONDITIONS ARE NOT AVAILABLE FOR
       CHILLICOTHE AND FARMINGTON.

MOZ001>031-035>038-043-044-053-054-261400-
...NORTHERN AND WESTERN MISSOURI...
  
CITY           SKY/WX    TMP DP  RH WIND       PRES   REMARKS
KANSAS CTY INT CLOUDY    80  69  69 CALM      30.04S                  
KANSAS C DTWN  MOSUNNY   81  70  69 CALM      30.02S                  
LEE'S SUMMIT   PTSUNNY   81  70  69 CALM      30.05S                  
ST JOSEPH      CLOUDY    77  71  82 SE3       30.02S                  
CHILLICOTHE      N/A     77  70  79 CALM      30.05F                  
KIRKSVILLE     MOSUNNY   77  69  76 MISG      30.07R                  
     
$$
MOZ066>068-077>081-088>096-101>105-261400-
...SOUTHWEST MISSOURI...
  
CITY           SKY/WX    TMP DP  RH WIND       PRES   REMARKS
SPRINGFIELD    SUNNY     80  71  74 SW13      30.10S                  
JOPLIN         MOSUNNY   80  72  76 S12       30.09R                  
BRANSON        PTSUNNY   77  72  83 S6        30.15R                  
               
$$
MOZ032>034-039>042-045>050-055>058-069>072-261400-
...CENTRAL MISSOURI...  
  
CITY           SKY/WX    TMP DP  RH WIND       PRES   REMARKS
COLUMBIA       PTSUNNY   81  71  71 SW10      30.06R                  
JEFFERSON CITY PTSUNNY   79  70  74 CALM      30.06R                  
ROLLA          SUNNY     79  69  71 SW10      30.09R                  
SEDALIA        PTSUNNY   81  71  71 SW9       30.07R                  
WHITEMAN AFB   PTSUNNY   80  73  80 SW8       30.04R                  
OSAGE BEACH    PTSUNNY   81  72  74 W3        30.09R                  
               
$$
MOZ051-052-059>065-261400-
...EAST CENTRAL MISSOURI...
  
CITY           SKY/WX    TMP DP  RH WIND       PRES   REMARKS
ST LOUIS INTL  LGT RAIN  82  69  64 SW7G16    30.07R                  
SPIRIT OF STL  SUNNY     80  73  79 SW6       30.05R                  
ST CHARLES     MOSUNNY   78  75  90 CALM      30.05R                  
                   
$$
MOZ072>076-082>087-097>100-106>115-261400-
...SOUTH CENTRAL AND SOUTHEAST MISSOURI...
  
CITY           SKY/WX    TMP DP  RH WIND       PRES   REMARKS
CAPE GIRARDEAU SUNNY     82  71  69 SW7       30.08R                  
FARMINGTON     CLOUDY    77  72  84 S3        30.11R                  
POPLAR BLUFF   MOSUNNY   80  73  79 SW7       30.09R                  
WEST PLAINS    CLOUDY    79  71  76 CALM      30.15R                  
                                       
$$
  

Return to Home page


Western Regional Climate Center, wrcc@dri.edu